When you browse on this site, cookies collect data to enhance your experience and personalize the content and advertising you see.
Visit our Privacy Policy to learn more. By continuing to use the site, you agree to this use of cookies and data.
  • In Czech Republic
  • List of Countries
  • For 7 days
  • Water Temperature
  • Satellite Maps
  • Weather Map
  • Weather Widgets
  • user-avatar
    Login

    Hourly Weather Warren

    Today, 18 April, Thursday

    Time Temperature Precipitation Wind Pressure Humidity
    00:00 +14°C° 0 mm 6 mps 737 mmHg 85%
    01:00 +14°C° 0 mm 6 mps 736 mmHg 87%
    02:00 +14°C° 0 mm 6 mps 736 mmHg 88%
    03:00 +15°C° 0 mm 6 mps 735 mmHg 89%
    04:00 +15°C° 0.1 mm 6 mps 735 mmHg 91%
    05:00 +15°C° 0.1 mm 6 mps 735 mmHg 92%
    06:00 +16°C° 0.1 mm 6 mps 735 mmHg 93%
    07:00 +16°C° 0.4 mm 6 mps 735 mmHg 92%
    08:00 +16°C° 0.4 mm 6 mps 735 mmHg 90%
    09:00 +17°C° 0.4 mm 6 mps 734 mmHg 89%
    10:00 +18°C° 0.1 mm 7 mps 734 mmHg 83%
    11:00 +20°C° 0.1 mm 7 mps 734 mmHg 77%
    12:00 +20°C° 0.1 mm 8 mps 734 mmHg 72%
    13:00 +20°C° 1 mm 7 mps 734 mmHg 76%
    14:00 +18°C° 1 mm 7 mps 734 mmHg 80%
    15:00 +19°C° 1 mm 6 mps 734 mmHg 84%
    16:00 +17°C° 1.8 mm 5 mps 734 mmHg 84%
    17:00 +15°C° 1.8 mm 4 mps 734 mmHg 85%
    18:00 +15°C° 1.8 mm 2 mps 735 mmHg 86%
    19:00 +15°C° 0.8 mm 2 mps 735 mmHg 86%
    20:00 +14°C° 0.8 mm 2 mps 735 mmHg 87%
    21:00 +13°C° 0.8 mm 2 mps 735 mmHg 88%
    22:00 +12°C° 0.8 mm 3 mps 735 mmHg 88%
    23:00 +11°C° 0.8 mm 4 mps 734 mmHg 89%

    Tomorrow, 19 April, Friday

    Time Temperature Precipitation Wind Pressure Humidity
    00:00 +11°C° 0.8 mm 4 mps 734 mmHg 89%
    01:00 +10°C° 0.7 mm 4 mps 734 mmHg 89%
    02:00 +8°C° 0.7 mm 5 mps 733 mmHg 89%
    03:00 +8°C° 0.7 mm 5 mps 733 mmHg 89%
    04:00 +7°C° 4.5 mm 6 mps 732 mmHg 88%
    05:00 +6°C° 4.5 mm 8 mps 732 mmHg 88%
    06:00 +5°C° 4.5 mm 9 mps 731 mmHg 88%
    07:00 +5°C° 3.4 mm 9 mps 731 mmHg 87%
    08:00 +4°C° 3.4 mm 8 mps 731 mmHg 86%
    09:00 +4°C° 3.4 mm 8 mps 731 mmHg 85%
    10:00 +4°C° 0.7 mm 8 mps 731 mmHg 84%
    11:00 +3°C° 0.7 mm 9 mps 732 mmHg 84%
    12:00 +3°C° 0.7 mm 9 mps 732 mmHg 84%
    13:00 +3°C° 0.3 mm 9 mps 732 mmHg 83%
    14:00 +2°C° 0.3 mm 9 mps 732 mmHg 82%
    15:00 +2°C° 0.3 mm 9 mps 732 mmHg 82%
    16:00 +2°C° 0 mm 9 mps 732 mmHg 81%
    17:00 +2°C° 0 mm 9 mps 733 mmHg 81%
    18:00 +2°C° 0 mm 10 mps 733 mmHg 81%
    19:00 +2°C° 0.2 mm 9 mps 733 mmHg 81%
    20:00 +2°C° 0.2 mm 9 mps 733 mmHg 82%
    21:00 +2°C° 0.2 mm 9 mps 734 mmHg 82%
    22:00 +2°C° 0.4 mm 9 mps 733 mmHg 83%
    23:00 +2°C° 0.4 mm 8 mps 733 mmHg 84%

    Day after tomorrow, 20 April, Saturday

    Time Temperature Precipitation Wind Pressure Humidity
    00:00 +2°C° 0.4 mm 8 mps 732 mmHg 85%
    01:00 +2°C° 0 mm 8 mps 732 mmHg 85%
    02:00 +2°C° 0 mm 9 mps 731 mmHg 86%
    03:00 +2°C° 0 mm 9 mps 731 mmHg 87%
    04:00 +2°C° 0.6 mm 8 mps 731 mmHg 88%
    05:00 +4°C° 0.6 mm 8 mps 731 mmHg 89%
    06:00 +4°C° 0.6 mm 8 mps 730 mmHg 90%
    07:00 +4°C° 0.7 mm 7 mps 730 mmHg 90%
    08:00 +5°C° 0.7 mm 7 mps 731 mmHg 90%
    09:00 +5°C° 0.7 mm 6 mps 731 mmHg 91%
    10:00 +6°C° 0.3 mm 5 mps 731 mmHg 90%
    11:00 +7°C° 0.3 mm 4 mps 731 mmHg 90%
    12:00 +8°C° 0.3 mm 3 mps 732 mmHg 89%
    13:00 +8°C° 0.1 mm 2 mps 732 mmHg 87%
    14:00 +9°C° 0.1 mm 2 mps 732 mmHg 84%
    15:00 +9°C° 0.1 mm 2 mps 732 mmHg 82%
    16:00 +9°C° 0 mm 2 mps 733 mmHg 83%
    17:00 +8°C° 0 mm 2 mps 733 mmHg 85%
    18:00 +9°C° 0 mm 1 mps 734 mmHg 86%
    19:00 +8°C° 0 mm 1 mps 734 mmHg 87%
    20:00 +8°C° 0 mm 1 mps 735 mmHg 88%
    21:00 +7°C° 0 mm 1 mps 735 mmHg 89%
    22:00 +7°C° 0 mm 1 mps 736 mmHg 89%
    23:00 +7°C° 0 mm 1 mps 736 mmHg 89%

    21 April, Sunday

    Time Temperature Precipitation Wind Pressure Humidity
    00:00 +6°C° 0 mm 0 mps 737 mmHg 89%
    01:00 +7°C° 0 mm 1 mps 737 mmHg 90%
    02:00 +7°C° 0 mm 1 mps 737 mmHg 90%
    03:00 +7°C° 0 mm 1 mps 738 mmHg 90%
    04:00 +7°C° 0 mm 1 mps 738 mmHg 90%
    05:00 +7°C° 0 mm 1 mps 739 mmHg 89%
    06:00 +7°C° 0 mm 1 mps 740 mmHg 88%
    07:00 +9°C° 0 mm 1 mps 740 mmHg 81%
    08:00 +10°C° 0 mm 1 mps 741 mmHg 75%
    09:00 +12°C° 0 mm 1 mps 741 mmHg 68%
    10:00 +14°C° 0 mm 1 mps 742 mmHg 63%
    11:00 +15°C° 0 mm 1 mps 742 mmHg 58%
    12:00 +17°C° 0 mm 2 mps 742 mmHg 53%
    13:00 +17°C° 0 mm 2 mps 742 mmHg 51%
    14:00 +17°C° 0 mm 2 mps 743 mmHg 49%
    15:00 +18°C° 0 mm 3 mps 743 mmHg 48%
    16:00 +17°C° 0 mm 3 mps 743 mmHg 51%
    17:00 +16°C° 0 mm 3 mps 743 mmHg 54%
    18:00 +14°C° 0 mm 3 mps 744 mmHg 58%
    19:00 +13°C° 0 mm 3 mps 744 mmHg 59%
    20:00 +13°C° 0 mm 3 mps 744 mmHg 61%
    21:00 +12°C° 0 mm 3 mps 745 mmHg 62%
    22:00 +12°C° 0.6 mm 3 mps 744 mmHg 65%
    23:00 +12°C° 0.6 mm 3 mps 744 mmHg 68%

    22 April, Monday

    Time Temperature Precipitation Wind Pressure Humidity
    00:00 +11°C° 0.6 mm 3 mps 744 mmHg 72%
    01:00 +11°C° 1.4 mm 3 mps 744 mmHg 77%
    02:00 +11°C° 1.4 mm 3 mps 744 mmHg 83%
    03:00 +11°C° 1.4 mm 3 mps 744 mmHg 89%
    04:00 +12°C° 0.2 mm 2 mps 745 mmHg 92%
    05:00 +13°C° 0.2 mm 2 mps 745 mmHg 94%
    06:00 +13°C° 0.2 mm 1 mps 745 mmHg 97%
    07:00 +14°C° 0.1 mm 1 mps 746 mmHg 94%
    08:00 +15°C° 0.1 mm 1 mps 746 mmHg 92%
    09:00 +16°C° 0.1 mm 1 mps 746 mmHg 89%
    10:00 +16°C° 0.2 mm 2 mps 746 mmHg 87%
    11:00 +17°C° 0.2 mm 2 mps 746 mmHg 85%
    12:00 +18°C° 0.2 mm 3 mps 746 mmHg 83%
    13:00 +18°C° 0 mm 3 mps 746 mmHg 80%
    14:00 +19°C° 0 mm 2 mps 746 mmHg 76%
    15:00 +20°C° 0 mm 2 mps 746 mmHg 72%
    16:00 +18°C° 0.9 mm 3 mps 746 mmHg 77%
    17:00 +17°C° 0.9 mm 3 mps 746 mmHg 81%
    18:00 +14°C° 0.9 mm 4 mps 746 mmHg 86%
    19:00 +13°C° 0.6 mm 4 mps 747 mmHg 86%
    20:00 +12°C° 0.6 mm 4 mps 747 mmHg 85%
    21:00 +11°C° 0.6 mm 4 mps 747 mmHg 85%
    22:00 +10°C° 0.1 mm 4 mps 747 mmHg 85%
    23:00 +10°C° 0.1 mm 4 mps 748 mmHg 85%

    23 April, Tuesday

    Time Temperature Precipitation Wind Pressure Humidity
    00:00 +10°C° 0.1 mm 4 mps 748 mmHg 86%
    01:00 +8°C° 0.1 mm 4 mps 748 mmHg 86%
    02:00 +8°C° 0.1 mm 4 mps 748 mmHg 86%
    03:00 +8°C° 0.1 mm 5 mps 749 mmHg 86%
    04:00 +8°C° 0.1 mm 5 mps 749 mmHg 86%
    05:00 +7°C° 0.1 mm 5 mps 750 mmHg 85%
    06:00 +7°C° 0.1 mm 5 mps 750 mmHg 84%
    07:00 +7°C° 0.1 mm 5 mps 751 mmHg 82%
    08:00 +7°C° 0.1 mm 5 mps 752 mmHg 81%
    09:00 +7°C° 0.1 mm 5 mps 752 mmHg 79%
    10:00 +7°C° 0 mm 5 mps 752 mmHg 78%
    11:00 +7°C° 0 mm 4 mps 752 mmHg 77%
    12:00 +7°C° 0 mm 4 mps 752 mmHg 77%
    13:00 +7°C° 0.1 mm 4 mps 752 mmHg 76%
    14:00 +8°C° 0.1 mm 4 mps 752 mmHg 75%
    15:00 +8°C° 0.1 mm 4 mps 752 mmHg 74%
    16:00 +9°C° 0.6 mm 3 mps 752 mmHg 77%
    17:00 +9°C° 0.6 mm 3 mps 753 mmHg 79%
    18:00 +9°C° 0.6 mm 3 mps 753 mmHg 82%
    19:00 +8°C° 0.4 mm 3 mps 753 mmHg 79%
    20:00 +8°C° 0.4 mm 3 mps 753 mmHg 77%
    21:00 +8°C° 0.4 mm 3 mps 753 mmHg 74%
    22:00 +8°C° 0.1 mm 3 mps 753 mmHg 77%
    23:00 +8°C° 0.1 mm 2 mps 752 mmHg 79%
    Show more